YM2KA-13 Weather Reports


time (UTC)temp
F
wind
direction
speed
knots
gust
knots
rain 1hr
in
rain 24hr
in
rain mn
in
humidity
%
barometer
mb
20260508102231 69 342 4.3 7.8 0.00 0.00 0.00 34 1016.7
20260508101353 69 236 0.9 1.7 0.00 0.00 0.00 34 1016.7
20260508100727 68 215 0.0 1.7 0.00 0.00 0.00 34 1016.8
20260508100354 68 349 1.7 2.6 0.00 0.00 0.00 33 1016.8
20260508095355 67 237 0.9 1.7 0.00 0.00 0.00 33 1016.9
20260508095234 67 212 1.7 5.2 0.00 0.00 0.00 32 1016.9
20260508094346 68 216 1.7 2.6 0.00 0.00 0.00 35 1016.9
20260508093731 67 272 0.0 0.0 0.00 0.00 0.00 37 1017.0
20260508093347 67 243 1.7 2.6 0.00 0.00 0.00 37 1017.1
20260508092349 67 295 4.3 6.1 0.00 0.00 0.00 38 1017.2
20260508092227 66 240 1.7 2.6 0.00 0.00 0.00 39 1017.2
20260508091350 66 209 0.0 0.9 0.00 0.00 0.00 37 1017.2
20260508090734 66 265 4.3 6.1 0.00 0.00 0.00 39 1017.4
20260508090350 65 253 1.7 1.7 0.00 0.00 0.00 40 1017.4
20260508085352 66 228 0.9 4.3 0.00 0.00 0.00 40 1017.5
20260508085231 65 287 1.7 2.6 0.00 0.00 0.00 40 1017.4
20260508084353 65 327 0.9 2.6 0.00 0.00 0.00 41 1017.4
20260508083728 65 244 1.7 4.3 0.00 0.00 0.00 42 1017.4
20260508083353 65 310 2.6 2.6 0.00 0.00 0.00 42 1017.4
20260508082355 65 253 1.7 5.2 0.00 0.00 0.00 43 1017.5
20260508082234 65 267 0.9 6.1 0.00 0.00 0.00 44 1017.5
20260508081346 64 294 0.9 5.2 0.00 0.00 0.00 45 1017.5
20260508080731 64 237 0.9 1.7 0.00 0.00 0.00 45 1017.7
20260508080347 63 312 0.9 1.7 0.00 0.00 0.00 46 1017.7
20260508075348 63 294 0.9 2.6 0.00 0.00 0.00 49 1017.7
20260508075227 63 53 0.9 2.6 0.00 0.00 0.00 49 1017.7
20260508074349 63 299 5.2 7.0 0.00 0.00 0.00 49 1017.8
20260508073734 63 320 2.6 6.1 0.00 0.00 0.00 48 1017.9
20260508073350 63 293 1.7 4.3 0.00 0.00 0.00 48 1017.9
20260508072352 62 319 2.6 5.2 0.00 0.00 0.00 48 1017.9
20260508072230 62 302 1.7 2.6 0.00 0.00 0.00 50 1017.9
20260508071353 62 309 1.7 4.3 0.00 0.00 0.00 49 1017.8
20260508070727 62 284 1.7 2.6 0.00 0.00 0.00 49 1017.9
20260508070353 62 309 1.7 2.6 0.00 0.00 0.00 48 1017.9
20260508065355 62 276 0.9 2.6 0.00 0.00 0.00 50 1018.0
20260508065234 62 286 4.3 4.3 0.00 0.00 0.00 50 1018.0
20260508064346 61 302 1.7 2.6 0.00 0.00 0.00 53 1018.1
20260508063730 61 301 0.9 2.6 0.00 0.00 0.00 52 1018.1
20260508063346 60 244 0.9 2.6 0.00 0.00 0.00 52 1018.1
20260508062348 59 274 0.0 0.9 0.00 0.00 0.00 56 1018.1
20260508062227 59 293 0.9 2.6 0.00 0.00 0.00 57 1018.1
20260508061349 58 277 0.0 0.9 0.00 0.00 0.00 61 1018.1
20260508060734 58 288 0.0 1.7 0.00 0.00 0.00 62 1018.2
20260508060350 58 262 0.0 1.7 0.00 0.00 0.00 62 1018.1
20260508055351 57 331 0.9 1.7 0.00 0.00 0.00 64 1018.1
20260508055230 57 284 0.0 1.7 0.00 0.00 0.00 64 1018.1
20260508054353 56 289 1.7 4.3 0.00 0.00 0.00 65 1018.1
20260508053727 56 331 0.9 1.7 0.00 0.00 0.00 66 1018.1
20260508053353 56 8 0.0 0.9 0.00 0.00 0.00 66 1018.1
20260508052355 56 313 0.0 0.0 0.00 0.00 0.00 67 1018.1
20260508052234 56 311 0.0 0.0 0.00 0.00 0.00 68 1018.1
20260508051346 55 2 0.0 0.0 0.00 0.00 0.00 69 1018.1
20260508050729 55 335 0.0 0.0 0.00 0.00 0.00 69 1018.0
20260508050345 55 325 0.0 0.9 0.00 0.00 0.00 70 1018.1
20260508045347 54 271 0.0 0.0 0.00 0.00 0.00 73 1018.1
20260508045226 54 271 0.0 0.0 0.00 0.00 0.00 72 1018.1
20260508044348 53 311 0.0 0.0 0.00 0.00 0.00 74 1018.2
20260508043733 53 311 0.0 0.0 0.00 0.00 0.00 74 1018.2
20260508043348 52 311 0.0 0.0 0.00 0.00 0.00 74 1018.1
20260508042350 52 44 0.0 0.0 0.00 0.00 0.00 74 1018.1
20260508042229 52 44 0.0 0.0 0.00 0.00 0.00 74 1018.0
20260508041351 52 255 0.0 0.0 0.00 0.00 0.00 75 1018.0
20260508040726 51 255 0.0 0.0 0.00 0.00 0.00 75 1018.0
20260508040352 51 255 0.0 0.0 0.00 0.00 0.00 75 1018.0
20260508035353 51 255 0.0 0.0 0.00 0.00 0.00 75 1017.8
20260508035232 51 255 0.0 0.0 0.00 0.00 0.00 75 1017.8
20260508034355 51 255 0.0 0.0 0.00 0.00 0.00 74 1017.7
20260508033729 51 255 0.0 0.0 0.00 0.00 0.00 74 1017.6
20260508033345 51 255 0.0 0.0 0.00 0.00 0.00 74 1017.6
20260508032347 51 255 0.0 0.0 0.00 0.00 0.00 74 1017.6
20260508032225 51 255 0.0 0.0 0.00 0.00 0.00 73 1017.5
20260508031348 51 255 0.0 0.0 0.00 0.00 0.00 73 1017.5
20260508030732 51 255 0.0 0.0 0.00 0.00 0.00 73 1017.4
20260508030348 51 255 0.0 0.0 0.00 0.00 0.00 73 1017.3
20260508025350 51 255 0.0 0.0 0.00 0.00 0.00 73 1017.2
20260508025229 51 255 0.0 0.0 0.00 0.00 0.00 73 1017.1
20260508024351 52 255 0.0 0.0 0.00 0.00 0.00 72 1017.1
20260508023725 52 255 0.0 0.0 0.00 0.00 0.00 71 1017.1
20260508023351 52 255 0.0 0.0 0.00 0.00 0.00 71 1017.1
20260508022352 52 255 0.0 0.0 0.00 0.00 0.00 71 1017.0
20260508022231 52 255 0.0 0.0 0.00 0.00 0.00 71 1017.0
20260508021353 52 255 0.0 0.0 0.00 0.00 0.00 71 1016.9
20260508020727 52 255 0.0 0.9 0.00 0.00 0.00 71 1016.9
20260508020353 52 255 0.0 0.0 0.00 0.00 0.00 71 1016.9
20260508015354 52 255 0.0 0.0 0.00 0.00 0.00 70 1017.0
20260508015233 52 255 0.0 0.0 0.00 0.00 0.00 70 1017.0
20260508014346 52 255 0.0 0.0 0.00 0.00 0.00 69 1017.1
20260508013730 52 255 0.9 0.9 0.00 0.00 0.00 70 1017.1
20260508013346 52 217 0.9 0.9 0.00 0.00 0.00 70 1017.1
20260508012348 52 158 0.0 0.0 0.00 0.00 0.00 71 1017.1
20260508012226 52 167 0.9 0.9 0.00 0.00 0.00 71 1017.2
20260508011349 52 157 0.9 0.9 0.00 0.00 0.00 71 1017.2
20260508010733 52 211 0.0 0.9 0.00 0.00 0.00 70 1017.3
20260508010349 52 188 0.0 1.7 0.00 0.00 0.00 70 1017.3
20260508005350 52 176 0.0 0.0 0.00 0.00 0.00 69 1017.4
20260508005229 52 170 0.0 0.0 0.00 0.00 0.00 69 1017.4
20260508004351 52 187 0.0 0.0 0.00 0.00 0.00 69 1017.5
20260508003725 53 167 0.0 0.0 0.00 0.00 0.00 69 1017.4
20260508003351 53 257 0.0 0.0 0.00 0.00 0.00 69 1017.4
20260508002353 52 257 0.0 0.0 0.00 0.00 0.00 69 1017.6
20260508002232 53 257 0.0 0.0 0.00 0.00 0.00 69 1017.6
20260508001355 53 257 0.0 0.0 0.00 0.00 0.00 68 1017.6
20260508000729 53 257 0.0 0.0 0.00 0.00 0.00 68 1017.6
20260508000345 53 257 0.0 0.0 0.00 0.00 0.00 68 1017.6
20260507235346 53 257 0.0 0.0 0.00 0.00 0.00 67 1017.6
20260507235225 54 257 0.0 0.0 0.00 0.00 0.00 66 1017.6
20260507234349 54 257 0.0 0.0 0.00 0.00 0.00 66 1017.5
20260507233732 54 257 0.0 0.0 0.00 0.00 0.00 66 1017.5
20260507233348 54 257 0.0 0.9 0.00 0.00 0.00 65 1017.5
20260507232350 54 239 0.0 0.0 0.00 0.00 0.00 65 1017.5
20260507232229 54 239 0.0 0.0 0.00 0.00 0.00 65 1017.5
20260507231351 55 239 0.0 0.0 0.00 0.00 0.00 64 1017.4
20260507230725 55 239 0.0 0.0 0.00 0.00 0.00 64 1017.4
20260507230351 55 239 0.0 0.0 0.00 0.00 0.00 63 1017.4
20260507225353 56 239 0.0 0.0 0.00 0.00 0.00 61 1017.3
20260507225232 56 239 0.0 0.0 0.00 0.00 0.00 61 1017.3
20260507224354 56 231 0.0 0.0 0.00 0.00 0.00 62 1017.4
20260507223728 56 231 0.0 0.0 0.00 0.00 0.00 62 1017.4
20260507223344 56 231 0.0 0.0 0.00 0.00 0.00 61 1017.2
20260507222346 56 231 0.0 0.0 0.00 0.00 0.00 61 1017.4
20260507222225 56 231 0.0 0.0 0.00 0.00 0.00 61 1017.4
20260507221347 57 231 0.0 0.0 0.00 0.00 0.00 60 1017.4
20260507220732 57 221 0.0 0.0 0.00 0.00 0.00 60 1017.4
20260507220348 57 221 0.0 0.0 0.00 0.00 0.00 60 1017.4
20260507215349 57 238 0.0 0.0 0.00 0.00 0.00 60 1017.4
20260507215228 57 230 0.0 0.0 0.00 0.00 0.00 60 1017.5
20260507214351 56 222 0.9 0.9 0.00 0.00 0.00 60 1017.5
20260507213725 56 206 0.0 0.9 0.00 0.00 0.00 60 1017.6
20260507213351 56 206 0.9 1.7 0.00 0.00 0.00 60 1017.6
20260507212353 56 171 1.7 2.6 0.00 0.00 0.00 60 1017.7
20260507212232 56 196 0.9 1.7 0.00 0.00 0.00 59 1017.7
20260507211354 56 218 0.0 0.0 0.00 0.00 0.00 59 1017.6
20260507210728 57 262 0.0 0.9 0.00 0.00 0.00 59 1017.7
20260507210344 57 262 0.0 0.0 0.00 0.00 0.00 58 1017.6
20260507205346 57 262 0.0 0.0 0.00 0.00 0.00 58 1017.7
20260507205225 57 262 0.0 0.0 0.00 0.00 0.00 58 1017.7
20260507204347 57 230 0.0 0.0 0.00 0.00 0.00 57 1017.7
20260507203731 57 250 0.0 0.9 0.00 0.00 0.00 57 1017.6
20260507203347 57 250 0.0 0.9 0.00 0.00 0.00 57 1017.6
20260507202349 57 198 0.0 0.0 0.00 0.00 0.00 57 1017.5
20260507202228 57 197 0.0 0.0 0.00 0.00 0.00 57 1017.5
20260507201350 57 197 0.0 0.0 0.00 0.00 0.00 55 1017.4
20260507200725 58 197 0.0 0.0 0.00 0.00 0.00 55 1017.4
20260507200351 58 197 0.0 0.0 0.00 0.00 0.00 55 1017.4
20260507195352 58 154 0.0 1.7 0.00 0.00 0.00 54 1017.3
20260507195232 58 193 0.9 1.7 0.00 0.00 0.00 54 1017.3
20260507194354 58 204 1.7 2.6 0.00 0.00 0.00 54 1017.2
20260507193728 58 172 0.9 1.7 0.00 0.00 0.00 54 1017.2
20260507193354 58 194 0.0 0.0 0.00 0.00 0.00 54 1017.3
20260507192346 58 152 0.0 1.7 0.00 0.00 0.00 54 1017.3
20260507192225 58 147 0.9 1.7 0.00 0.00 0.00 53 1017.3
20260507191347 59 140 0.0 0.9 0.00 0.00 0.00 53 1017.3
20260507190731 59 199 0.0 0.9 0.00 0.00 0.00 53 1017.3
20260507190347 59 201 0.9 1.7 0.00 0.00 0.00 52 1017.3
20260507185349 60 136 0.0 0.0 0.00 0.00 0.00 52 1017.2
20260507185228 60 206 0.9 0.9 0.00 0.00 0.00 51 1017.2
20260507184350 60 222 0.0 0.0 0.00 0.00 0.00 51 1017.2
20260507183724 60 201 0.9 0.9 0.00 0.00 0.00 51 1017.1
20260507183351 60 204 0.0 0.0 0.00 0.00 0.00 51 1017.1
20260507182352 60 217 0.9 1.7 0.00 0.00 0.00 50 1017.0
20260507182231 60 212 0.0 0.9 0.00 0.00 0.00 50 1017.0
20260507181353 60 207 0.9 1.7 0.00 0.00 0.00 49 1017.0
20260507180728 60 221 0.9 0.9 0.00 0.00 0.00 49 1016.9
20260507180354 60 209 0.9 1.7 0.00 0.00 0.00 49 1016.9
20260507175346 61 210 0.9 0.9 0.00 0.00 0.00 48 1016.8
20260507175224 61 209 0.9 1.7 0.00 0.00 0.00 48 1016.8
20260507174347 61 216 0.0 1.7 0.00 0.00 0.00 48 1016.7
20260507173731 61 223 0.0 0.9 0.00 0.00 0.00 48 1016.8
20260507173347 61 223 0.0 0.0 0.00 0.00 0.00 48 1016.7
20260507172349 61 227 0.9 1.7 0.00 0.00 0.00 47 1016.7
20260507172227 61 229 0.0 0.9 0.00 0.00 0.00 47 1016.7
20260507171349 61 236 0.9 1.7 0.00 0.00 0.00 46 1016.6
20260507170733 61 265 0.9 1.7 0.00 0.00 0.00 46 1016.7
20260507170349 61 253 0.0 0.0 0.00 0.00 0.00 46 1016.7
20260507165351 62 233 0.0 0.9 0.00 0.00 0.00 45 1016.8
20260507165230 62 262 0.0 0.9 0.00 0.00 0.00 45 1016.8
20260507164352 62 258 1.7 1.7 0.00 0.00 0.00 43 1016.8
20260507163726 62 285 0.9 2.6 0.00 0.00 0.00 42 1016.7
20260507163353 62 269 0.0 0.0 0.00 0.00 0.00 42 1016.6
20260507162353 63 279 0.9 2.6 0.00 0.00 0.00 40 1016.5
20260507162232 63 264 0.0 1.7 0.00 0.00 0.00 41 1016.5
20260507161344 63 271 1.7 2.6 0.00 0.00 0.00 39 1016.5
20260507160729 64 265 0.9 1.7 0.00 0.00 0.00 37 1016.5
20260507160345 64 277 0.9 2.6 0.00 0.00 0.00 37 1016.6
20260507155346 65 258 0.9 2.6 0.00 0.00 0.00 35 1016.6
20260507155225 65 290 1.7 5.2 0.00 0.00 0.00 36 1016.6
20260507154348 64 251 1.7 4.3 0.00 0.00 0.00 35 1016.6
20260507153732 64 283 2.6 4.3 0.00 0.00 0.00 35 1016.6
20260507153348 64 284 4.3 6.1 0.00 0.00 0.00 34 1016.6
20260507152350 64 297 1.7 5.2 0.00 0.00 0.00 36 1016.5
20260507152229 64 276 1.7 4.3 0.00 0.00 0.00 36 1016.5
20260507151351 64 295 4.3 7.8 0.00 0.00 0.00 37 1016.5
20260507150725 65 282 4.3 7.8 0.00 0.00 0.00 37 1016.5
20260507150351 65 277 5.2 8.7 0.00 0.00 0.00 37 1016.5
20260507145353 65 261 6.1 10.4 0.00 0.00 0.00 38 1016.5
20260507145232 65 254 4.3 4.3 0.00 0.00 0.00 38 1016.5
20260507144344 65 287 5.2 6.1 0.00 0.00 0.00 38 1016.6
20260507143729 65 286 5.2 8.7 0.00 0.00 0.00 38 1016.5
20260507143345 66 289 2.6 6.1 0.00 0.00 0.00 37 1016.6
20260507142346 65 293 4.3 6.1 0.00 0.00 0.00 37 1016.5
20260507142225 65 292 4.3 6.1 0.00 0.00 0.00 38 1016.5
20260507141347 65 270 4.3 7.0 0.00 0.00 0.00 38 1016.5
20260507140732 65 235 5.2 8.7 0.00 0.00 0.00 37 1016.6
20260507140348 65 263 5.2 7.8 0.00 0.00 0.00 38 1016.5
20260507135350 65 293 5.2 8.7 0.00 0.00 0.00 35 1016.6
20260507135228 65 248 0.9 1.7 0.00 0.00 0.00 36 1016.5
20260507134351 65 263 5.2 7.0 0.00 0.00 0.00 36 1016.5
20260507133725 66 271 5.2 7.8 0.00 0.00 0.00 37 1016.5
20260507133351 65 285 5.2 7.0 0.00 0.00 0.00 37 1016.5
20260507132353 65 268 0.9 2.6 0.00 0.00 0.00 38 1016.5
20260507132232 65 207 0.9 2.6 0.00 0.00 0.00 38 1016.6
20260507131344 65 170 2.6 4.3 0.00 0.00 0.00 39 1016.7
20260507130728 66 34 1.7 6.1 0.00 0.00 0.00 37 1016.7
20260507130344 65 291 1.7 2.6 0.00 0.00 0.00 37 1016.6
20260507125346 65 339 1.7 2.6 0.00 0.00 0.00 38 1016.7
20260507125225 65 264 5.2 6.1 0.00 0.00 0.00 39 1016.8
20260507124347 65 240 0.9 2.6 0.00 0.00 0.00 40 1016.9
20260507123732 64 262 0.9 4.3 0.00 0.00 0.00 44 1016.9
20260507123348 64 230 1.7 2.6 0.00 0.00 0.00 43 1016.9
20260507122349 64 222 2.6 4.3 0.00 0.00 0.00 42 1017.0
20260507122228 65 237 2.6 2.6 0.00 0.00 0.00 42 1017.1
20260507121350 65 227 2.6 5.2 0.00 0.00 0.00 42 1017.1
20260507120725 64 191 1.7 2.6 0.00 0.00 0.00 43 1017.2
20260507120351 64 233 2.6 7.8 0.00 0.00 0.00 42 1017.3
20260507115353 64 315 0.9 2.6 0.00 0.00 0.00 40 1017.4
20260507115231 64 114 0.0 0.9 0.00 0.00 0.00 40 1017.4
20260507114344 64 212 2.6 6.1 0.00 0.00 0.00 41 1017.4
20260507113728 64 252 0.0 5.2 0.00 0.00 0.00 41 1017.3
20260507113353 64 283 0.0 1.7 0.00 0.00 0.00 41 1017.3
20260507112345 65 212 7.0 8.7 0.00 0.00 0.00 40 1017.4
20260507112224 64 234 5.2 10.4 0.00 0.00 0.00 41 1017.4
20260507111346 64 347 1.7 2.6 0.00 0.00 0.00 40 1017.4
20260507110730 64 262 1.7 5.2 0.00 0.00 0.00 41 1017.4
20260507110346 65 241 5.2 6.1 0.00 0.00 0.00 40 1017.5
20260507105348 64 184 0.9 1.7 0.00 0.00 0.00 41 1017.5
20260507105227 64 248 0.0 0.0 0.00 0.00 0.00 41 1017.5
20260507104349 64 233 5.2 5.2 0.00 0.00 0.00 43 1017.5
20260507103723 63 212 1.7 6.1 0.00 0.00 0.00 44 1017.5
20260507103349 63 191 4.3 7.0 0.00 0.00 0.00 45 1017.5
20260507102351 63 208 4.3 5.2 0.00 0.00 0.00 45 1017.6